Location: Carrer del Canonge
(41.4901°N, 2.2931°E)
Time: 14:03:17
(UTC+00:00)

Cosmos 1975 Rocket - Pass Details

Date: 18 September 2020
Orbit: 603 x 634 km, 82.5° (Epoch: 28 October)

Event Time Altitude Azimuth Distance (km) Brightness Sun altitude
Rises 19:07:00 0° 349° (N) 2,876 6.9 -14.3°
Reaches altitude 10° 19:09:15 10° 347° (NNW) 1,964 6.0 -14.7°
Maximum altitude 19:13:33 68° 265° (W) 654 3.3 -15.4°
Drops below altitude 10° 19:17:49 10° 182° (S) 1,942 5.5 -16.2°
Sets 19:20:01 0° 180° (S) 2,840 6.3 -16.6°
